Measurements were made at the meteorological tower in Juelich (50.90 N / 6.40 E) at an altitude of 100 m
"Instrument: Fast Greenhouse Gas Analyzer (FGGA), Los Gatos Inc."
Responsible PI: Dr. Marc von Hobe; Forschungszentrum Juelich GmbH; IEK-7; email: m.von.hobe@fz-juelich.de
NaN or negative numbers are fill values (i.e. no valid measurements were made at that time)
Uncertainties are given as the 1-sigma standard deviation over each 10 minute intervals. In each interval ~600 individual measurements are carried out so that the standard error of the mean is approximately sigma/sqrt(600).
time_utc,CO2_ppm,stdev_CO2_ppm,CH4_ppm,stdev_CH4_ppm,H2O_ppm,stdev_H2O_ppm
"2017-09-01 00:05:00 000",409.279,3.30579,1.97081,0.00731030,10561.2,219.406
"2017-09-01 00:15:00 000",404.955,1.30837,1.97115,0.00652919,10417.6,210.141
"2017-09-01 00:25:00 000",404.459,2.89188,1.97219,0.00685546,10491.3,214.424
"2017-09-01 00:35:00 000",399.080,2.07596,1.97262,0.00641437,10317.4,230.297
"2017-09-01 00:45:00 000",400.417,1.26556,1.97209,0.00592123,10121.7,196.551
"2017-09-01 00:55:00 000",404.038,1.76655,1.96828,0.00620195,10117.0,215.775
"2017-09-01 01:05:00 000",405.760,1.25981,1.97283,0.00707793,10308.3,203.718
"2017-09-01 01:15:00 000",403.267,1.17686,1.97123,0.00638762,10300.0,200.620
"2017-09-01 01:25:00 000",402.717,1.01664,1.97266,0.00608844,10175.4,206.009
"2017-09-01 01:35:00 000",403.960,0.996244,1.97060,0.00640232,10164.4,198.247
"2017-09-01 01:45:00 000",406.521,3.14476,1.97208,0.00846907,10289.7,220.727
"2017-09-01 01:55:00 000",408.391,1.49320,1.97646,0.00681221,10289.3,210.175
"2017-09-01 02:05:00 000",404.368,2.75796,1.97218,0.00828443,10323.5,208.010
"2017-09-01 02:15:00 000",402.234,1.33410,1.96676,0.00758007,10309.7,194.516
"2017-09-01 02:25:00 000",400.943,1.29953,1.96140,0.00729083,10359.5,196.490
"2017-09-01 02:35:00 000",402.385,1.32482,1.96223,0.00652658,10285.4,205.335
"2017-09-01 02:45:00 000",402.444,1.26051,1.96439,0.00656911,10306.0,200.800
"2017-09-01 02:55:00 000",405.630,1.27245,1.96621,0.00683528,10367.2,204.273
"2017-09-01 03:05:00 000",404.662,1.81644,1.96511,0.00686543,10498.5,196.857
"2017-09-01 03:15:00 000",406.171,1.46923,1.96756,0.00666702,10444.2,205.727
"2017-09-01 03:25:00 000",406.618,0.931787,1.97015,0.00609666,10527.2,185.935
"2017-09-01 03:35:00 000",406.965,1.41083,1.97324,0.00634643,10542.0,184.229
"2017-09-01 03:45:00 000",404.278,1.73927,1.96757,0.00760285,10697.4,195.246
"2017-09-01 03:55:00 000",404.678,1.34013,1.96252,0.00650423,10618.4,214.292
"2017-09-01 04:05:00 000",407.069,1.28860,1.96941,0.00667505,10573.6,204.978
"2017-09-01 04:15:00 000",408.763,1.72101,1.97339,0.00589130,10537.8,192.107
"2017-09-01 04:25:00 000",408.637,1.12468,1.97801,0.00655964,10483.1,201.682
"2017-09-01 04:35:00 000",407.174,1.24657,1.98571,0.00613846,10517.3,190.570
"2017-09-01 04:45:00 000",408.109,1.54880,1.98665,0.00607666,10516.4,203.162
"2017-09-01 04:55:00 000",409.177,1.00944,1.98761,0.00613569,10482.7,192.784
"2017-09-01 05:05:00 000",410.116,1.05641,1.98875,0.00571422,10474.5,179.058
"2017-09-01 05:15:00 000",411.516,0.908880,1.99131,0.00546784,10548.3,169.300
"2017-09-01 05:25:00 000",413.987,1.29800,1.99900,0.00630057,10573.8,178.341
"2017-09-01 05:35:00 000",414.946,1.83511,2.00435,0.0127167,10569.2,191.233
"2017-09-01 05:45:00 000",413.806,1.54785,1.99681,0.00978235,10592.9,180.304
"2017-09-01 05:55:00 000",415.963,1.32639,2.00288,0.00598699,10604.7,175.269
"2017-09-01 06:05:00 000",418.244,1.32678,2.00739,0.00655686,10687.3,178.560
"2017-09-01 06:15:00 000",419.033,1.18487,2.01912,0.00779069,10764.1,187.426
"2017-09-01 06:25:00 000",422.856,1.94366,2.02971,0.00640523,10827.8,224.809
"2017-09-01 06:35:00 000",423.543,2.05374,2.02923,0.00613624,11130.5,186.594
"2017-09-01 06:45:00 000",421.413,1.13845,2.03261,0.00638692,11156.6,214.233
"2017-09-01 06:55:00 000",422.261,1.08684,2.03658,0.00662923,11134.1,236.308
"2017-09-01 07:05:00 000",422.642,1.86218,2.03737,0.00940975,11045.4,177.766
"2017-09-01 07:15:00 000",421.789,2.30258,2.02929,0.00943985,11112.6,237.358
"2017-09-01 07:25:00 000",421.256,1.94898,2.03012,0.00940548,11524.9,156.703
"2017-09-01 07:35:00 000",420.347,2.15138,2.03332,0.00822027,11522.3,164.765
"2017-09-01 07:45:00 000",418.801,1.54337,2.03165,0.00608921,11641.4,129.077
"2017-09-01 07:55:00 000",414.307,2.56567,2.02226,0.00898935,11583.5,145.383
"2017-09-01 08:05:00 000",413.526,1.27859,2.02630,0.00552769,11486.1,117.218
"2017-09-01 08:15:00 000",410.477,2.24277,2.02129,0.0127088,11630.1,102.738
"2017-09-01 08:25:00 000",407.561,1.73228,1.99893,0.00894375,11455.0,94.4078
"2017-09-01 08:35:00 000",408.998,1.09253,2.00902,0.00555744,11694.5,159.327
"2017-09-01 08:45:00 000",408.277,1.67589,2.01045,0.00570091,11725.8,156.981
"2017-09-01 08:55:00 000",406.141,1.35110,2.00703,0.00596521,11465.5,177.559
"2017-09-01 09:05:00 000",405.861,2.63243,2.00659,0.00924895,11782.1,170.022
"2017-09-01 09:15:00 000",400.896,1.87824,1.98788,0.00680096,11389.5,125.266
"2017-09-01 09:25:00 000",400.608,1.27735,1.98658,0.00672188,11359.2,219.358
"2017-09-01 09:35:00 000",400.827,1.78039,1.98921,0.00621270,11418.2,166.871
"2017-09-01 09:45:00 000",398.434,1.35700,1.97992,0.00905454,10943.2,255.947
"2017-09-01 09:55:00 000",397.640,0.923434,1.97187,0.00545099,10951.6,105.773
"2017-09-01 10:05:00 000",397.492,1.08020,1.97196,0.00511175,11510.8,388.434
"2017-09-01 10:15:00 000",394.874,1.14161,1.96416,0.00573765,11301.8,460.549
"2017-09-01 10:25:00 000",392.839,0.935067,1.95339,0.00474257,10440.8,137.673
"2017-09-01 10:35:00 000",392.641,1.13571,1.95399,0.00475950,10790.2,158.405
"2017-09-01 10:45:00 000",392.783,1.01690,1.95301,0.00587322,10265.8,325.197
"2017-09-01 10:55:00 000",393.449,1.00186,1.95123,0.00462027,10171.7,128.786
"2017-09-01 11:05:00 000",391.986,1.22865,1.94985,0.00553568,10181.6,257.421
"2017-09-01 11:15:00 000",394.049,0.942146,1.96323,0.00467019,10547.7,113.870
"2017-09-01 11:25:00 000",392.430,1.20749,1.95400,0.00614783,10189.2,347.563
"2017-09-01 11:35:00 000",391.726,1.05644,1.95120,0.00502311,9980.27,251.560
"2017-09-01 11:45:00 000",391.304,0.997144,1.94997,0.00476648,9949.85,183.493
"2017-09-01 11:55:00 000",391.964,1.06673,1.95428,0.00425214,9963.01,140.910
"2017-09-01 12:05:00 000",391.033,1.13208,1.95352,0.00485847,10088.4,156.022
"2017-09-01 12:15:00 000",390.588,1.07890,1.94797,0.00470872,9733.28,142.178
"2017-09-01 12:25:00 000",390.847,1.17522,1.94639,0.00456157,9832.76,169.931
"2017-09-01 12:35:00 000",390.154,1.48353,1.94610,0.00475907,9777.96,238.623
"2017-09-01 12:45:00 000",391.312,1.20925,1.94830,0.00442539,9573.50,131.169
"2017-09-01 12:55:00 000",391.373,1.10435,1.94728,0.00485309,9418.24,151.877
"2017-09-01 13:05:00 000",391.036,1.00242,1.94465,0.00469299,9114.24,228.011
"2017-09-01 13:15:00 000",390.609,1.05177,1.94748,0.00495974,9046.74,137.498
"2017-09-01 13:25:00 000",391.933,0.949460,1.94727,0.00475900,8954.06,101.632
"2017-09-01 13:35:00 000",391.805,0.873397,1.94777,0.00560802,9316.38,146.158
"2017-09-01 13:45:00 000",391.507,1.01238,1.94768,0.00428123,9191.53,196.211
"2017-09-01 13:55:00 000",392.839,0.877276,1.94876,0.00446144,8920.77,99.1302
"2017-09-01 14:05:00 000",393.199,0.936186,1.94736,0.00488893,8925.46,106.337
"2017-09-01 14:15:00 000",392.566,0.987764,1.95013,0.00499103,8998.91,127.932
"2017-09-01 14:25:00 000",392.132,0.997749,1.95183,0.00434326,9103.73,179.179
"2017-09-01 14:35:00 000",392.508,0.875894,1.95160,0.00427487,8940.31,122.978
"2017-09-01 14:45:00 000",391.687,0.929049,1.95061,0.00455824,8805.08,188.986
"2017-09-01 14:55:00 000",392.675,0.856150,1.95618,0.00435530,8877.21,134.921
"2017-09-01 15:05:00 000",392.619,0.867416,1.95642,0.00492208,8844.15,223.101
"2017-09-01 15:15:00 000",391.702,0.895068,1.95775,0.00575655,9121.35,180.038
"2017-09-01 15:25:00 000",392.395,0.875577,1.96371,0.00467671,9520.98,89.6350
"2017-09-01 15:35:00 000",392.224,0.886696,1.96642,0.00517230,9508.16,133.190
"2017-09-01 15:45:00 000",392.148,0.920984,1.96855,0.00472398,9331.66,162.962
"2017-09-01 15:55:00 000",391.922,0.937775,1.96262,0.00448199,9130.29,146.003
"2017-09-01 16:05:00 000",391.544,0.872155,1.96379,0.00499853,9122.95,126.184
"2017-09-01 16:15:00 000",392.196,1.07466,1.96975,0.00507447,9492.79,116.116
"2017-09-01 16:25:00 000",391.493,0.863201,1.97057,0.00468839,9563.11,110.965
"2017-09-01 16:35:00 000",391.585,0.812087,1.96472,0.00478662,9140.89,168.842
"2017-09-01 16:45:00 000",391.328,0.938245,1.96342,0.00515286,9235.26,184.260
"2017-09-01 16:55:00 000",390.427,0.902085,1.96496,0.00471843,9549.41,95.7543
"2017-09-01 17:05:00 000",390.744,0.906926,1.96392,0.00488264,9702.19,115.800
"2017-09-01 17:15:00 000",391.002,0.939653,1.96091,0.00489747,9397.54,165.545
"2017-09-01 17:25:00 000",390.423,0.954026,1.96278,0.00489537,9561.43,167.134
"2017-09-01 17:35:00 000",389.676,0.951709,1.97839,0.00810507,10043.4,128.686
"2017-09-01 17:45:00 000",390.988,1.06340,2.00178,0.00823733,10098.4,93.1311
"2017-09-01 17:55:00 000",393.333,1.98412,2.05308,0.0194228,10437.6,119.902
"2017-09-01 18:05:00 000",394.276,1.17816,2.08469,0.00868759,10573.8,93.5767
"2017-09-01 18:15:00 000",396.012,1.01850,2.09840,0.00680163,10662.4,99.6254
"2017-09-01 18:25:00 000",395.421,1.17654,2.10494,0.00616018,10787.8,102.111
"2017-09-01 18:35:00 000",397.801,2.10641,2.09642,0.00971509,10949.8,123.635
"2017-09-01 18:45:00 000",401.029,1.51764,2.08055,0.0466175,11202.9,106.382
"2017-09-01 18:55:00 000",402.849,1.57722,1.98648,0.0143706,11190.9,110.967
"2017-09-01 19:05:00 000",404.257,1.06988,1.96992,0.00604576,11289.9,103.402
"2017-09-01 19:15:00 000",406.779,1.24952,1.96523,0.00491347,10872.5,144.947
"2017-09-01 19:25:00 000",404.963,1.74322,1.96121,0.00520289,10772.9,110.425
"2017-09-01 19:35:00 000",401.278,1.39893,1.95688,0.00494780,10675.9,130.926
"2017-09-01 19:45:00 000",402.346,1.41480,1.95163,0.00555128,11111.8,169.923
"2017-09-01 19:55:00 000",403.323,2.74222,1.94988,0.00556992,11089.6,248.998
"2017-09-01 20:05:00 000",404.407,5.47207,1.94688,0.00543151,10801.7,238.495
"2017-09-01 20:15:00 000",401.934,1.46168,1.95106,0.00679591,10731.7,171.619
"2017-09-01 20:25:00 000",402.692,1.32258,1.95208,0.00599335,10616.5,169.281
"2017-09-01 20:35:00 000",400.667,0.993044,1.95195,0.00640894,10825.5,184.661
"2017-09-01 20:45:00 000",400.558,0.886344,1.95151,0.00668586,10792.7,195.262
"2017-09-01 20:55:00 000",401.659,1.07615,1.95895,0.00767038,10632.8,195.306
"2017-09-01 21:05:00 000",401.491,1.36137,1.98570,0.00730006,10797.0,211.324
"2017-09-01 21:15:00 000",400.979,1.46691,1.99810,0.0120828,11037.8,188.348
"2017-09-01 21:25:00 000",401.952,1.20848,2.01767,0.00898834,11465.2,202.058
"2017-09-01 21:35:00 000",402.009,0.972292,2.02899,0.00869547,11602.4,185.273
"2017-09-01 21:45:00 000",403.817,1.23941,2.02778,0.00797055,11690.9,184.079
"2017-09-01 21:55:00 000",404.162,1.05741,2.02806,0.00766569,11686.3,173.195
"2017-09-01 22:05:00 000",404.582,0.982745,2.01598,0.0116564,11522.7,178.292
"2017-09-01 22:15:00 000",406.130,1.55699,1.99326,0.00808367,11241.1,158.181
"2017-09-01 22:25:00 000",406.787,0.955255,1.98405,0.00586190,11272.6,146.182
"2017-09-01 22:35:00 000",407.255,0.888166,1.98436,0.00503301,11242.8,162.072
"2017-09-01 22:45:00 000",407.316,1.05252,1.98439,0.00473145,11379.2,135.956
"2017-09-01 22:55:00 000",407.282,1.02396,1.99160,0.00705146,11218.1,140.852
"2017-09-01 23:05:00 000",406.366,1.13604,1.99090,0.00541546,11252.3,98.7593
"2017-09-01 23:15:00 000",406.865,0.948341,1.99513,0.00634727,11275.9,98.6112
"2017-09-01 23:25:00 000",407.133,1.17263,2.00738,0.00962531,11361.8,153.284
"2017-09-01 23:35:00 000",408.775,1.37891,2.01602,0.00698490,11618.6,178.398
"2017-09-01 23:45:00 000",406.030,1.26861,2.02337,0.0158156,11650.9,183.370
"2017-09-01 23:55:00 000",409.375,2.03552,2.02359,0.00883804,11625.8,106.165
"2017-09-02 00:05:00 000",409.788,1.96044,2.02009,0.00716058,11699.7,104.774
"2017-09-02 00:15:00 000",407.915,1.81325,2.01060,0.00617811,11788.5,124.849
"2017-09-02 00:25:00 000",411.461,1.90676,2.01221,0.00637873,11574.2,146.050
"2017-09-02 00:35:00 000",419.096,3.65152,2.02541,0.00742236,11503.7,146.009
"2017-09-02 00:45:00 000",427.048,3.12546,2.03310,0.0107833,11694.0,166.289
"2017-09-02 00:55:00 000",417.640,2.45346,2.02889,0.00993541,11859.6,174.097
"2017-09-02 01:05:00 000",412.170,5.29755,2.02483,0.0158714,11427.7,274.179
"2017-09-02 01:15:00 000",409.595,4.43738,2.03306,0.0180305,10830.9,201.451
"2017-09-02 01:25:00 000",419.371,2.65345,2.09674,0.0151958,11066.4,204.083
"2017-09-02 01:35:00 000",424.251,3.44534,2.09935,0.0156315,11188.6,184.324
"2017-09-02 01:45:00 000",430.998,1.87311,2.13930,0.0146857,11207.3,201.864
"2017-09-02 01:55:00 000",429.960,2.91794,2.14817,0.0229611,11396.1,201.398
"2017-09-02 02:05:00 000",432.012,3.51407,2.13999,0.0137332,11460.6,194.251
"2017-09-02 02:15:00 000",436.905,2.61280,2.14442,0.00761209,11485.4,184.827
"2017-09-02 02:25:00 000",431.834,1.84572,2.13383,0.0106321,11588.5,168.570
"2017-09-02 02:35:00 000",434.855,1.17691,2.17702,0.0146023,11667.2,171.849
"2017-09-02 02:45:00 000",430.621,2.23230,2.17081,0.0111130,11587.9,161.297
"2017-09-02 02:55:00 000",433.563,1.85966,2.18173,0.0105208,11624.9,171.074
"2017-09-02 03:05:00 000",435.543,2.39383,2.20754,0.0101143,11626.5,181.884
"2017-09-02 03:15:00 000",438.460,1.50765,2.21783,0.00949491,11612.6,176.482
"2017-09-02 03:25:00 000",437.888,1.68699,2.25350,0.0142257,11595.1,177.002
"2017-09-02 03:35:00 000",436.069,1.40327,2.27502,0.00882012,11638.0,185.053
"2017-09-02 03:45:00 000",436.381,2.61461,2.29784,0.0144909,11642.1,159.354
"2017-09-02 03:55:00 000",436.147,2.42495,2.32223,0.00973432,11650.7,156.798
"2017-09-02 04:05:00 000",439.883,1.66704,2.31304,0.00865210,11675.0,187.527
"2017-09-02 04:15:00 000",438.992,1.96738,2.31168,0.00722165,11547.8,152.075
"2017-09-02 04:25:00 000",438.510,2.08073,2.31426,0.00899523,11527.8,138.257
"2017-09-02 04:35:00 000",436.217,3.53115,2.32845,0.00992248,11565.2,154.380
"2017-09-02 04:45:00 000",433.496,0.985388,2.33662,0.00557482,11580.7,143.009
"2017-09-02 04:55:00 000",433.877,1.56127,2.32632,0.00731797,11601.5,157.553
"2017-09-02 05:05:00 000",436.929,2.84584,2.31581,0.00591768,11645.5,139.412
"2017-09-02 05:15:00 000",435.696,2.70310,2.30980,0.00922063,11596.2,145.664
"2017-09-02 05:25:00 000",433.523,1.19957,2.31024,0.00709772,11617.9,158.096
"2017-09-02 05:35:00 000",432.303,2.00216,2.29413,0.0101578,11703.4,142.187
"2017-09-02 05:45:00 000",432.417,1.60047,2.28536,0.00597377,11740.8,149.805
"2017-09-02 05:55:00 000",434.085,2.71328,2.28889,0.00810968,11683.6,145.768
"2017-09-02 06:05:00 000",437.039,2.97109,2.29043,0.0111882,11730.0,153.315
"2017-09-02 06:15:00 000",434.698,1.71596,2.28508,0.00750931,11696.8,149.159
"2017-09-02 06:25:00 000",431.593,2.99321,2.25794,0.0159940,11837.5,171.130
"2017-09-02 06:35:00 000",431.153,4.59956,2.24222,0.0248598,11930.4,142.377
"2017-09-02 06:45:00 000",431.850,4.54478,2.23564,0.0259111,11924.7,142.510
"2017-09-02 06:55:00 000",434.062,3.95054,2.23156,0.0220497,11907.0,154.882
"2017-09-02 07:05:00 000",434.923,4.31537,2.23298,0.0268347,11864.3,142.623
"2017-09-02 07:15:00 000",438.343,1.91093,2.24882,0.0147993,11859.5,150.688
"2017-09-02 07:25:00 000",437.131,1.44442,2.23401,0.0123568,11812.4,155.932
"2017-09-02 07:35:00 000",435.350,1.60863,2.22348,0.0138982,11773.9,155.747
"2017-09-02 07:45:00 000",434.086,1.06675,2.21916,0.00701620,11981.8,187.524
"2017-09-02 07:55:00 000",431.171,1.34224,2.20279,0.00768191,12360.8,189.825
"2017-09-02 08:05:00 000",428.902,1.67861,2.17869,0.0200359,12317.4,182.713
"2017-09-02 08:15:00 000",428.449,2.00437,2.17858,0.0211763,12083.4,178.799
"2017-09-02 08:25:00 000",426.591,1.52519,2.16952,0.0131986,12015.1,176.412
"2017-09-02 08:35:00 000",426.131,1.27809,2.18046,0.0124083,11916.7,177.024
"2017-09-02 08:45:00 000",424.967,1.93152,2.18034,0.0158477,11965.4,209.114
"2017-09-02 08:55:00 000",421.723,1.57022,2.17026,0.0130973,11853.2,187.824
"2017-09-02 09:05:00 000",417.966,1.02367,2.14758,0.00987634,11904.7,199.366
"2017-09-02 09:15:00 000",419.900,1.73192,2.17831,0.0139221,11900.7,203.842
"2017-09-02 09:25:00 000",419.066,1.26637,2.17378,0.0118092,12024.6,180.235
"2017-09-02 09:35:00 000",418.760,2.29532,2.18036,0.0177838,11997.7,179.017
"2017-09-02 09:45:00 000",415.752,1.25955,2.15950,0.00988637,11753.9,194.828
"2017-09-02 09:55:00 000",415.013,1.68990,2.16189,0.0174415,11792.3,169.359
"2017-09-02 10:05:00 000",415.560,1.46312,2.12155,0.0153140,11289.6,199.852
"2017-09-02 10:15:00 000",416.578,1.44918,2.11173,0.00645452,11100.1,210.208
"2017-09-02 10:25:00 000",416.676,1.58199,2.11186,0.0134603,11077.2,202.147
"2017-09-02 10:35:00 000",417.670,1.68100,2.14357,0.00689021,11239.5,159.752
"2017-09-02 10:45:00 000",421.058,2.08289,2.14964,0.00724225,11132.0,191.109
"2017-09-02 10:55:00 000",421.946,1.34452,2.15083,0.00879731,11002.8,131.017
"2017-09-02 11:05:00 000",424.101,2.21546,2.15702,0.00930538,11102.7,113.385
"2017-09-02 11:15:00 000",425.072,1.92680,2.16014,0.0118523,10817.4,210.527
"2017-09-02 11:25:00 000",426.660,1.68734,2.18117,0.00540672,11013.2,112.824
"2017-09-02 11:35:00 000",423.651,1.69839,2.17523,0.00912881,10994.2,232.837
"2017-09-02 11:45:00 000",415.755,5.83335,2.17811,0.0119381,10798.0,160.953
"2017-09-02 11:55:00 000",408.996,3.42931,2.14535,0.0165464,10880.0,122.085
"2017-09-02 12:05:00 000",407.237,5.21967,2.12736,0.0367458,11269.3,328.946
"2017-09-02 12:15:00 000",398.810,1.91158,2.05348,0.0179673,11671.4,210.404
"2017-09-02 12:25:00 000",399.421,1.25571,2.05959,0.00537504,11299.7,235.454
"2017-09-02 12:35:00 000",399.025,1.34777,2.04852,0.0117069,10342.5,292.805
"2017-09-02 12:45:00 000",400.667,1.91382,2.05552,0.0151553,10223.7,136.612
"2017-09-02 12:55:00 000",408.442,2.15152,2.10292,0.00728900,11157.9,175.934
"2017-09-02 13:05:00 000",402.842,1.45443,2.09318,0.0109629,11510.4,360.175
"2017-09-02 13:15:00 000",404.521,1.93190,2.08532,0.00734851,11938.5,141.730
"2017-09-02 13:25:00 000",405.208,3.94392,2.07702,0.0171416,11508.5,206.080
"2017-09-02 13:35:00 000",404.898,2.07685,2.07674,0.00896604,11273.7,103.386
"2017-09-02 13:45:00 000",405.803,2.26520,2.07545,0.00962924,11223.5,140.118
"2017-09-02 13:55:00 000",404.713,1.87271,2.07339,0.00958159,11353.4,239.016
"2017-09-02 14:05:00 000",403.867,2.23588,2.05486,0.0130723,10132.4,475.749
"2017-09-02 14:15:00 000",400.410,2.15003,2.07238,0.0109031,11749.4,424.570
"2017-09-02 14:25:00 000",398.421,1.33721,2.07472,0.00899601,12823.2,188.931
"2017-09-02 14:35:00 000",399.520,1.12860,2.06748,0.00567853,12452.2,267.182
"2017-09-02 14:45:00 000",399.726,1.28882,2.07200,0.00521725,12339.0,207.796
"2017-09-02 14:55:00 000",399.501,1.77025,2.07040,0.00484813,12514.8,450.240
"2017-09-02 15:05:00 000",400.676,1.43987,2.07715,0.00504126,12286.7,195.579
"2017-09-02 15:15:00 000",403.246,1.14778,2.09050,0.00522507,12205.0,216.073
"2017-09-02 15:25:00 000",402.638,1.25296,2.09140,0.00570708,12166.5,134.644
"2017-09-02 15:35:00 000",404.922,1.18013,2.09922,0.00652895,11664.7,286.087
"2017-09-02 15:45:00 000",402.498,1.13062,2.09159,0.00508237,11823.2,179.659
"2017-09-02 15:55:00 000",403.067,0.997237,2.08734,0.00495452,11641.6,118.093
"2017-09-02 16:05:00 000",401.621,1.28336,2.08481,0.00564832,11845.6,199.242
"2017-09-02 16:15:00 000",402.193,1.04841,2.08496,0.00496915,11989.8,134.341
"2017-09-02 16:25:00 000",401.075,0.952330,2.08223,0.00541701,11863.8,145.135
"2017-09-02 16:35:00 000",401.846,0.940933,2.07953,0.00525713,11797.0,100.573
"2017-09-02 16:45:00 000",401.422,1.16254,2.07035,0.00532483,11471.2,122.517
"2017-09-02 16:55:00 000",400.450,0.975448,2.05566,0.0117877,11271.5,184.005
"2017-09-02 17:05:00 000",400.492,0.962461,2.05729,0.00670135,11213.5,153.319
"2017-09-02 17:15:00 000",399.187,1.32226,2.05144,0.00838005,11307.2,136.198
"2017-09-02 17:25:00 000",398.484,1.23906,2.03629,0.00534236,10805.5,100.534
"2017-09-02 17:35:00 000",399.338,1.08530,2.03521,0.00742178,10805.1,144.471
"2017-09-02 17:45:00 000",395.379,3.01023,2.01335,0.0258133,10931.2,353.289
"2017-09-02 17:55:00 000",392.005,1.06228,1.97834,0.00607719,10743.4,113.174
"2017-09-02 18:05:00 000",391.652,1.15837,1.97529,0.00505396,10893.5,111.308
"2017-09-02 18:15:00 000",391.081,1.06794,1.96464,0.00710560,10493.4,363.845
"2017-09-02 18:25:00 000",388.393,1.44285,1.95561,0.00675904,9950.49,345.119
"2017-09-02 18:35:00 000",389.226,0.953714,1.97027,0.00589000,10272.4,122.727
"2017-09-02 18:45:00 000",390.967,1.07570,1.97417,0.00550088,10098.2,107.547
"2017-09-02 18:55:00 000",391.460,1.07157,1.97661,0.00532556,10072.1,132.702
"2017-09-02 19:05:00 000",393.735,2.20300,1.97677,0.00573035,9991.61,168.671
"2017-09-02 19:15:00 000",397.526,2.31428,1.96862,0.00557182,10322.1,138.297
"2017-09-02 19:25:00 000",403.392,1.38054,1.96580,0.00497746,9839.21,146.528
"2017-09-02 19:35:00 000",405.508,2.07904,1.96443,0.00576760,9554.35,127.598
"2017-09-02 19:45:00 000",402.759,3.84841,1.96870,0.00528844,9447.34,176.903
"2017-09-02 19:55:00 000",401.280,1.86052,1.97443,0.00697931,9380.60,120.658
"2017-09-02 20:05:00 000",395.722,1.19388,1.99317,0.00534642,9870.45,141.794
"2017-09-02 20:15:00 000",398.156,1.84675,1.98752,0.00676100,10013.3,222.780
"2017-09-02 20:25:00 000",399.045,2.25487,1.98192,0.00699120,10176.6,239.633
"2017-09-02 20:35:00 000",400.441,2.00009,1.98186,0.00551674,9938.03,139.739
"2017-09-02 20:45:00 000",398.297,1.26308,1.98065,0.00450597,10083.7,101.358
"2017-09-02 20:55:00 000",395.914,1.46235,1.97911,0.00424189,10087.4,104.323
"2017-09-02 21:05:00 000",396.598,1.02701,1.98633,0.00619568,10150.3,83.5204
"2017-09-02 21:15:00 000",396.757,0.920423,1.98538,0.00504125,10079.6,88.5856
"2017-09-02 21:25:00 000",396.457,1.06355,1.98344,0.00489794,10058.7,98.7996
"2017-09-02 21:35:00 000",394.501,1.20542,1.98653,0.00543620,10024.1,104.483
"2017-09-02 21:45:00 000",395.180,1.30541,1.98093,0.00524620,10011.9,106.117
"2017-09-02 21:55:00 000",394.806,1.90010,1.98459,0.00838890,10068.2,110.509
"2017-09-02 22:05:00 000",399.814,1.82935,2.00897,0.0102015,10332.3,141.045
"2017-09-02 22:15:00 000",403.160,2.01910,2.02677,0.0106271,10471.6,169.204
"2017-09-02 22:25:00 000",400.129,1.46010,2.01112,0.00858155,10277.2,210.970
"2017-09-02 22:35:00 000",399.100,1.29678,2.01500,0.0106656,10075.9,237.681
"2017-09-02 22:45:00 000",406.179,3.31125,2.03578,0.0102443,10333.1,222.544
"2017-09-02 22:55:00 000",404.713,2.56157,2.02964,0.00860227,10465.5,192.224
"2017-09-02 23:05:00 000",398.908,1.07993,2.01324,0.00573547,10330.0,220.192
"2017-09-02 23:15:00 000",398.593,1.28733,2.01149,0.00661796,10159.0,204.629
"2017-09-02 23:25:00 000",400.460,1.84372,2.01635,0.00959618,10318.0,188.578
"2017-09-02 23:35:00 000",399.149,1.39456,2.01058,0.00780317,10032.6,209.610
"2017-09-02 23:45:00 000",400.208,3.32717,2.01014,0.0112858,10044.8,207.575
"2017-09-02 23:55:00 000",398.992,5.18035,2.00899,0.0181942,9883.25,236.187
"2017-09-03 00:05:00 000",415.772,2.15292,2.07993,0.0160984,10018.8,276.315
"2017-09-03 00:15:00 000",417.053,1.71333,2.07046,0.0100214,10346.3,171.610
"2017-09-03 00:25:00 000",412.835,5.17260,2.04342,0.0159105,10338.1,179.036
"2017-09-03 00:35:00 000",404.820,1.88212,2.04263,0.0118336,10313.6,176.230
"2017-09-03 00:45:00 000",406.796,1.81895,2.05628,0.00527013,10126.7,173.894
"2017-09-03 00:55:00 000",401.886,1.94645,2.04159,0.00576679,10223.5,173.930
"2017-09-03 01:05:00 000",402.378,1.33012,2.04441,0.00628639,9961.84,166.542
"2017-09-03 01:15:00 000",404.883,1.55026,2.05510,0.00635009,9949.88,151.472
"2017-09-03 01:25:00 000",405.518,1.22607,2.05753,0.00731417,9983.63,135.492
"2017-09-03 01:35:00 000",406.137,1.25431,2.05695,0.00658805,9900.59,148.095
"2017-09-03 01:45:00 000",405.800,1.65670,2.05661,0.00806960,9871.86,142.187
"2017-09-03 01:55:00 000",405.413,1.87318,2.05124,0.0102149,9728.27,139.489
"2017-09-03 02:05:00 000",405.574,2.12042,2.05864,0.0130453,9678.40,159.046
"2017-09-03 02:15:00 000",404.954,1.80799,2.05395,0.00935458,9618.00,159.305
"2017-09-03 02:25:00 000",405.804,1.31875,2.05713,0.00690562,9564.24,130.079